This demonstration page uses our WeatherBlox Daily Observations layout. Learn more.

Left ArrowRight Arrow

Hourly Observations for February 25, 2016

Temp ( °F °C ) Dew Point ( °F °C ) Humidity (%) Winds ( mph kmh ) Pressure ( in mb ) Visibility ( mi km ) Precip ( " mm )
12:53 am 00:53 Clear 22 -5.6 14 -10 71 71 ENE 6 9 30.33 1027 10 16 0.00 0.00
1:53 am 01:53 Clear 22 -5.6 15 -9.4 75 75 ENE 3 6 30.32 1027 10 16 0.00 0.00
2:53 am 02:53 Clear 15 -9.4 11 -11.7 84 84 SW 5 7 30.32 1027 10 16 0.00 0.00
3:53 am 03:53 Clear 15 -9.4 11 -11.7 84 84 Calm 30.31 1027 10 16 0.00 0.00
4:53 am 04:53 Clear 16 -8.9 12 -11.1 84 84 WSW 3 6 30.32 1027 10 16 0.00 0.00
5:53 am 05:53 Clear 15 -9.4 12 -11.1 88 88 SW 5 7 30.32 1027 10 16 0.00 0.00
6:53 am 06:53 Clear 12 -11.1 10 -12.2 92 92 WSW 6 9 30.34 1027 10 16 0.00 0.00
7:53 am 07:53 Sunny 16 -8.9 13 -10.6 88 88 SW 3 6 30.34 1027 10 16 0.00 0.00
8:53 am 08:53 Sunny 22 -5.6 17 -8.3 82 82 WSW 6 9 30.31 1027 10 16 0.00 0.00
9:53 am 09:53 Sunny 29 -1.7 19 -7.2 66 66 W 6 9 30.31 1026 10 16 0.00 0.00
10:53 am 10:53 Sunny 35 1.7 19 -7.2 52 52 SW 7 11 30.29 1026 10 16 0.00 0.00
11:53 am 11:53 Sunny 41 5 19 -7.2 41 41 SW 10 17 30.27 1025 10 16 0.00 0.00
12:53 pm 12:53 Sunny N/A N/A N/A WSW 13 20 N/A 10 16 0.00 0.00
1:53 pm 13:53 Sunny N/A N/A N/A W 13 20 N/A N/A 0.00 0.00
2:53 pm 14:53 Sunny N/A N/A N/A W 10 17 N/A N/A 0.00 0.00
3:45 pm 15:45 Sunny 53 11.7 19 -7.2 26 26 WNW 8 13 30.09 1019 10 16 0.00 0.00
3:53 pm 15:53 Sunny 53 11.7 20 -6.7 27 27 WNW 8 13 30.20 1023 10 16 0.00 0.00
4:53 pm 16:53 Sunny 52 11.1 20 -6.7 28 28 NW 8 13 30.20 1023 10 16 0.00 0.00
5:53 pm 17:53 Sunny 46 7.8 19 -7.2 34 34 Calm 30.21 1023 10 16 0.00 0.00
6:53 pm 18:53 Clear 30 -1.1 17 -8.3 58 58 S 10 17 30.25 1025 10 16 0.00 0.00
7:53 pm 19:53 Clear 29 -1.7 18 -7.8 63 63 Calm 30.25 1024 10 16 0.00 0.00
8:53 pm 20:53 Clear 29 -1.7 19 -7.2 66 66 SW 5 7 30.24 1024 10 16 0.00 0.00
9:53 pm 21:53 Clear 25 -3.9 18 -7.8 75 75 W 3 6 30.23 1024 10 16 0.00 0.00
10:53 pm 22:53 Clear 25 -3.9 18 -7.8 75 75 WNW 5 7 30.21 1023 10 16 0.00 0.00
11:53 pm 23:53 Clear 23 -5 18 -7.8 81 81 W 6 9 30.21 1023 10 16 0.00 0.00

Powered by AerisWeather